This is the latest recevied weather packets stored in our database for station/object NY3Q. If no packets are shown the sender has not sent any weather packets the latest 10 day(s).
| Time | Temp. | Humidity | Pressure | Rain* | Wind** | Luminosity | Snow |
|---|---|---|---|---|---|---|---|
| 1777382618 | 23.89° C | 82% | 1021.1 hPa | 0 mm | - | 299 W/m² | - |
| 1777382315 | 23.89° C | 83% | 1021.2 hPa | 0 mm | - | 114 W/m² | - |
| 1777382012 | 23.89° C | 83% | 1020.9 hPa | 0 mm | - | 231 W/m² | - |
| 1777381712 | 23.89° C | 85% | 1020.9 hPa | 0 mm | - | 172 W/m² | - |
| 1777380801 | 23.33° C | 88% | 1021 hPa | 0 mm | - | 134 W/m² | - |
| 1777378678 | 21.67° C | 94% | 1020.3 hPa | 0 mm | - | 37 W/m² | - |
| 1777378069 | 21.11° C | 95% | 1020.5 hPa | 0 mm | - | 57 W/m² | - |
| 1777377154 | 20.56° C | 95% | 1020.5 hPa | 0 mm | - | 28 W/m² | - |
| 1777376852 | 20.56° C | 95% | 1020 hPa | 0 mm | - | 41 W/m² | - |
| 1777376245 | 20° C | 95% | 1019.8 hPa | 0 mm | - | 33 W/m² | - |
| 1777375939 | 19.44° C | 95% | 1019.6 hPa | 0 mm | - | 29 W/m² | - |
| 1777372594 | 19.44° C | 94% | 1019.1 hPa | 0 mm | - | 0 W/m² | - |
| 1777372294 | 19.44° C | 94% | 1019 hPa | 0 mm | - | 0 W/m² | - |
| 1777371992 | 19.44° C | 94% | 1019.1 hPa | 0 mm | - | 0 W/m² | - |
| 1777371689 | 19.44° C | 94% | 1018.9 hPa | 1.78 mm | - | 0 W/m² | - |
| 1777371386 | 19.44° C | 94% | 1019 hPa | 1.78 mm | - | 0 W/m² | - |
| 1777371082 | 19.44° C | 94% | 1019.1 hPa | 0 mm | - | 0 W/m² | - |
| 1777370778 | 19.44° C | 93% | 1019.1 hPa | 0 mm | - | 0 W/m² | - |
| 1777370474 | 19.44° C | 93% | 1019.2 hPa | 1.78 mm | - | 0 W/m² | - |
| 1777370174 | 19.44° C | 93% | 1019.1 hPa | 1.78 mm | - | 0 W/m² | - |
| 1777369872 | 19.44° C | 93% | 1019 hPa | 0 mm | - | 0 W/m² | - |
| 1777369568 | 19.44° C | 93% | 1019.3 hPa | 0 mm | - | 0 W/m² | - |
| 1777369264 | 19.44° C | 93% | 1019.2 hPa | 0 mm | - | 0 W/m² | - |
| 1777368963 | 19.44° C | 93% | 1019.1 hPa | 0 mm | - | 0 W/m² | - |
| 1777368657 | 19.44° C | 93% | 1019.2 hPa | 0 mm | - | 0 W/m² | - |
* Rain latest hour (hover to see other rain measurements)
** Current wind speed in m/s (hover to see current wind gust speed)